DELTA 1 DEB, 10758

Orbit data source: Space-Track

DELTA 1 DEB, 10758 is space debris in SSO originally from a launch on Thu, 29 Jul 1976 UTC launched from the Air Force Western Test Range (AFWTR). Debris objects in space refer to the collection of defunct objects orbiting the Earth. Examples of debris include non-operational satellites, rocket bodies, and fragments generated from explosions, collisions, or faulty payload assembly.

Loading next visibility...
Identifier
10758, 1976-077BF
Orbit
SSO
Country
Flag of USUS
Related business
Manufacturer
Unknown
Mission
Spacecraft
Bus & Motor
Unknown
Mass
Unknown
Launch date (UTC)
1976-07-29 (50 years ago)
Launch vehicle
Unknown
Launch site
Air Force Western Test Range (AFWTR)
Object type
Payload
Rocket body
Debris
Shape & HBR
Unknown shape, 0.3 m
Radar Cross Section
Medium (>0.1 m² and <1 m²)

Expand to show TLE details & history
Last TLE update: 9 hours ago

TLE from 9 hours ago
0 DELTA 1 DEB
1 10758U 76077BF  26122.43046858  .00000017  00000-0  62972-3 0  9996
2 10758 102.4662  76.8229 0154779 269.6936 213.0192 12.12848929203528
Epoch: 2026-05-02T10:19Z
TLE epoch observation values (Epoch: 2026-05-02T10:19:52.485Z)
Latitude
56.21034°
Longitude
-99.29838°
Altitude
1,737.398 km
Speed
6.969 km/s
True Right ascension
18h 24m 04s
True Declination
56° 04' 14"
Sunlit
Object was in daylight at epoch
Visualization orbit readout
Latitude
Unknown
Longitude
Unknown
Altitude
Unknown
Speed
Unknown
Apparent Right ascension
Unknown
Apparent Declination
Unknown
Sunlit
N/A
Visualization observer readout
Local Sidereal Time
02:44:25
Azimuth
Unknown
Elevation
Unknown
Doppler factor
Unknown
Orbital elements
Apogee altitude
1,745.296 km
Perigee altitude
1,497.661 km
Semi-major axis
7,999.616 km
Eccentricity
0.01548
Inclination
102.4662°
RAAN
76.8229°
Arg. of periapsis
269.6936°
True anomaly
212.06819°
Mean anomaly
213.0192°
Eccentric anomaly
212.54216°
Mean motion
3.03347 °/min
Orbital period
118.68 mins
BSTAR
0.00062972
Loading maneuver chart data...
Computing Atmospheric mass density...
Loading historical data...
Loading historical data...
Loading historical data...
Loading historical data...
Loading historical data...
Loading historical data...
Loading historical data...

Documentation

Showing up to 5 results
|